Regional Weather Roundup
Issued by NWS Sioux Falls, SD

Home | Current Version | Previous Version | Text Only | Print | Product List | Glossary Off
Versions: 1 2 3 4 5 6 7 8 9 10 11 12 13 14 15 16 17 18 19 20 21 22 23 24 25 26 27 28 29 30 31 32 33 34 35 36 37 38 39 40 41 42 43 44 45 46 47 48 49 50

000
ASUS43 KFSD 031510
RWRFSD

WEATHER ROUNDUP FOR SE SOUTH DAKOTA/SW MINNESOTA/NW IOWA
NATIONAL WEATHER SERVICE SIOUX FALLS SD
1000 AM CDT MON AUG 03 2015

NOTE: "FAIR" INDICATES FEW OR NO CLOUDS BELOW 12,000 FEET WITH NO
SIGNIFICANT WEATHER AND OR OBSTRUCTIONS TO VISIBILITY.


SDZ038>040-050-052>070-031600-
SOUTHEAST SOUTH DAKOTA

CITY           SKY/WX    TMP DP  RH WIND       PRES   REMARKS
BROOKINGS      SUNNY     70  55  60 NW7       30.02S
CHAMBERLAIN    SUNNY     70  60  70 CALM      30.02S
HURON          SUNNY     71  62  73 W3        30.00R
MADISON        FAIR      72  55  56 NW6       30.02R
MITCHELL       SUNNY     71  61  70 S5        30.01S
SIOUX FALLS    MOSUNNY   72  56  57 SW7       30.00S
WINNER           N/A     75  59  57 SE3       30.02S
YANKTON        SUNNY     72  63  73 CALM      29.99S
$$

MNZ071-072-080-081-089-090-097-098-031600-
SOUTHWEST MINNESOTA

CITY           SKY/WX    TMP DP  RH WIND       PRES   REMARKS
FAIRMONT       SUNNY     72  52  49 W7        29.97S
JACKSON        SUNNY     72  54  53 W7        29.99S
LUVERNE        SUNNY     70  59  68 SW6       30.02R
MARSHALL       SUNNY     70  52  52 NW7       30.00R
MONTEVIDEO     SUNNY     73  63  68 NW3       29.98S
PIPESTONE      SUNNY     70  57  64 NW5       30.01R
REDWOOD FALLS  SUNNY     71  55  56 W7        29.95F
TRACY          SUNNY     70  57  64 NW8       29.99S
WINDOM         SUNNY     72  55  56 SW8       29.98S
WORTHINGTON    SUNNY     70  54  56 W8        30.00S
$$

IAZ001>003-012>014-020>022-031-032-NEZ013-014-SDZ071-031600-
NORTHWEST IOWA

CITY           SKY/WX    TMP DP  RH WIND       PRES   REMARKS
CHEROKEE       SUNNY     71  62  73 CALM      30.00S
DENISON        SUNNY     73  61  64 CALM      29.98S
ESTHERVILLE    SUNNY     71  55  56 VRB5      29.98S
LE MARS        SUNNY     72  59  64 CALM      30.00F
ORANGE CITY    SUNNY     70  55  60 SW5       30.00F
SHELDON        SUNNY     70  59  68 VRB5      30.00R
SIOUX CITY     NOT AVBL
SPENCER        SUNNY     72  54  53 SW6       30.00R
STORM LAKE     SUNNY     72  59  64 CALM      30.01S
$$

ABBREVIATIONS USED IN REMARKS
   TC - TEMPERATURE IN CELSIUS
  WCI - WIND CHILL INDEX
   HX - HEAT INDEX
  VSB - VISIBILITY




USA.gov is the U.S. government's official web portal to all federal, state and local government web resources and services.